Weather History for Minneapolis Flying Cloud, MN

Change the Weather History Date:

Monday, October 8, 2012

  Actual Average Record
Temperature  
Mean Temperature 52 °F -  
Max Temperature 66 °F 61 °F 88 °F (2010)
Min Temperature 39 °F 40 °F 28 °F (2000)
Degree Days  
Heating Degree Days 14    
Growing Degree Days 2 (Base 50)    
Moisture  
Dew Point 31 °F    
Average Humidity 47    
Maximum Humidity 63    
Minimum Humidity 27    
Precipitation  
Precipitation 0.00 in - - ()
Sea Level Pressure  
Sea Level Pressure 29.73 in    
Wind  
Wind Speed 10 mph (SW)    
Max Wind Speed 16 mph    
Max Gust Speed 23 mph    
Visibility 10 miles    
Events      
Averages and records for this station are not official NWS values.
T = Trace of Precipitation, MM = Missing Value Source: NWS Daily Summary

Daily Weather History Graph

Daily Weather History Graph

Search for Another Location

Airport:

Trip Planner

Search our weather history database for the weather conditions in past years. The results will help you decide how hot, cold, wet, or windy it might be!

Date:

Astronomy

Oct. 08, 2012 Rise Set
Actual Time 7:21 AM CDT 6:40 PM CDT
Civil Twilight 6:51 AM CDT 7:09 PM CDT
Nautical Twilight 6:17 AM CDT 7:43 PM CDT
Astronomical Twilight 5:43 AM CDT 8:17 PM CDT
Moon No Moon Rise 2:45 PM CDT (10/8)
Length of Visible Light 12h 18m
Length of Day
11h 19m
Last Quarter, 46% of the Moon is Illuminated
Oct 8
Last Quarter
Oct 15
New
Oct 21
First Quarter
Oct 29
Full
Nov 6
Last Quarter

Hourly Weather History & Observations

Time (CDT) Temp. Windchill Dew Point Humidity Pressure Visibility Wind Dir Wind Speed Gust Speed Precip Events Conditions
12:53 AM 42.1 °F 37.1 °F 23.0 °F 47% 29.87 in 10.0 mi SSW 8.1 mph - N/A   Clear
1:53 AM 43.0 °F 36.4 °F 23.0 °F 45% 29.86 in 10.0 mi SSW 12.7 mph - N/A   Clear
2:53 AM 39.9 °F 34.5 °F 23.0 °F 51% 29.85 in 10.0 mi SSW 8.1 mph - N/A   Clear
3:53 AM 39.9 °F 33.4 °F 24.1 °F 53% 29.83 in 10.0 mi SSW 10.4 mph - N/A   Clear
4:53 AM 39.0 °F 34.0 °F 25.0 °F 57% 29.82 in 10.0 mi SSW 6.9 mph - N/A   Clear
5:53 AM 39.0 °F 34.0 °F 25.0 °F 57% 29.81 in 10.0 mi South 6.9 mph - N/A   Mostly Cloudy
6:53 AM 41.0 °F 35.2 °F 26.1 °F 55% 29.79 in 10.0 mi South 9.2 mph - N/A   Overcast
7:53 AM 43.0 °F 37.2 °F 27.0 °F 53% 29.78 in 10.0 mi South 10.4 mph - N/A   Overcast
8:53 AM 45.0 °F 40.1 °F 28.0 °F 52% 29.77 in 10.0 mi South 9.2 mph - N/A   Overcast
9:53 AM 48.0 °F - 28.9 °F 48% 29.76 in 10.0 mi SSW 13.8 mph 19.6 mph N/A   Mostly Cloudy
10:53 AM 52.0 °F - 30.0 °F 43% 29.73 in 10.0 mi South 13.8 mph 21.9 mph N/A   Clear
11:53 AM 54.0 °F - 30.9 °F 41% 29.70 in 10.0 mi South 16.1 mph - N/A   Overcast
12:53 PM 57.0 °F - 33.1 °F 40% 29.66 in 10.0 mi South 13.8 mph - N/A   Overcast
1:53 PM 57.9 °F - 32.0 °F 37% 29.63 in 10.0 mi SSW 13.8 mph 23.0 mph N/A   Overcast
2:53 PM 62.1 °F - 34.0 °F 35% 29.60 in 10.0 mi South 11.5 mph - 0.00 in   Overcast
3:53 PM 63.0 °F - 30.9 °F 30% 29.60 in 10.0 mi SW 12.7 mph 23.0 mph N/A   Overcast
4:53 PM 64.9 °F - 30.0 °F 27% 29.59 in 10.0 mi SW 11.5 mph 20.7 mph N/A   Overcast
5:53 PM 64.9 °F - 35.1 °F 33% 29.61 in 10.0 mi West 11.5 mph - N/A   Mostly Cloudy
6:53 PM 61.0 °F - 39.0 °F 44% 29.64 in 10.0 mi West 9.2 mph 16.1 mph N/A   Mostly Cloudy
7:53 PM 60.1 °F - 39.0 °F 46% 29.67 in 10.0 mi WNW 13.8 mph 20.7 mph N/A   Partly Cloudy
8:53 PM 57.9 °F - 39.0 °F 49% 29.70 in 10.0 mi WNW 11.5 mph 23.0 mph N/A   Mostly Cloudy
9:53 PM 54.0 °F - 37.9 °F 55% 29.73 in 10.0 mi NW 12.7 mph 18.4 mph N/A   Clear
10:53 PM 51.1 °F - 37.9 °F 61% 29.75 in 10.0 mi West 4.6 mph - N/A   Clear
11:53 PM 50.0 °F - 37.9 °F 63% 29.75 in 10.0 mi SW 3.5 mph - N/A   Clear